Time,TemperatureF,DewpointF,PressureIn,WindDirection,WindDirectionDegrees,WindSpeedMPH,WindSpeedGustMPH,Humidity,HourlyPrecipIn,Conditions,Clouds,dailyrainin,SolarRadiationWatts/m^2,SoftwareType,DateUTC
2013-04-05 00:23:00,60.0,60.0,-100.00,SW,228,6.0,8.0,100,0.00,,,0.00,0.000000,,2013-04-05 10:23:00,
2013-04-05 00:32:00,60.0,60.0,-100.00,SW,228,6.0,8.0,100,0.00,,,0.00,0.000000,,2013-04-05 10:32:00,
2013-04-05 00:42:00,60.0,60.0,-100.00,SW,228,6.0,8.0,100,0.00,,,0.00,0.000000,,2013-04-05 10:42:00,
2013-04-05 00:52:00,60.0,60.0,-100.00,SW,228,6.0,8.0,100,0.00,,,0.00,0.000000,,2013-04-05 10:52:00,
2013-04-05 01:22:00,60.0,60.0,-100.00,SW,215,2.0,8.0,100,0.00,,,0.00,0.000000,,2013-04-05 11:22:00,
2013-04-05 01:32:00,60.0,60.0,-100.00,SW,215,2.0,8.0,100,0.00,,,0.00,0.000000,,2013-04-05 11:32:00,
2013-04-05 01:42:00,60.0,60.0,-100.00,SW,215,2.0,8.0,100,0.00,,,0.00,0.000000,,2013-04-05 11:42:00,
2013-04-05 01:52:00,60.0,60.0,-100.00,SW,215,2.0,8.0,100,0.00,,,0.00,0.000000,,2013-04-05 11:52:00,
2013-04-05 02:22:00,58.0,58.0,-100.00,SW,226,4.0,8.0,100,0.00,,,0.00,0.000000,,2013-04-05 12:22:00,
2013-04-05 02:32:00,58.0,58.0,-100.00,SW,226,4.0,8.0,100,0.00,,,0.00,0.000000,,2013-04-05 12:32:00,
2013-04-05 02:42:00,58.0,58.0,-100.00,SW,226,4.0,8.0,100,0.00,,,0.00,0.000000,,2013-04-05 12:42:00,
2013-04-05 02:52:00,58.0,58.0,-100.00,SW,226,4.0,8.0,100,0.00,,,0.00,0.000000,,2013-04-05 12:52:00,
2013-04-05 03:22:00,59.0,59.0,-100.00,SW,236,3.0,7.0,100,0.00,,,0.00,0.000000,,2013-04-05 13:22:00,
2013-04-05 03:32:00,59.0,59.0,-100.00,SW,236,3.0,7.0,100,0.00,,,0.00,0.000000,,2013-04-05 13:32:00,
2013-04-05 03:42:00,59.0,59.0,-100.00,SW,236,3.0,7.0,100,0.00,,,0.00,0.000000,,2013-04-05 13:42:00,
2013-04-05 03:52:00,59.0,59.0,-100.00,SW,236,3.0,7.0,100,0.00,,,0.00,0.000000,,2013-04-05 13:52:00,
2013-04-05 04:22:00,59.0,59.0,-100.00,SW,232,3.0,9.0,100,0.00,,,0.00,0.000000,,2013-04-05 14:22:00,
2013-04-05 04:36:00,59.0,59.0,-100.00,SW,232,3.0,9.0,100,0.00,,,0.00,0.000000,,2013-04-05 14:36:00,
2013-04-05 04:42:00,59.0,59.0,-100.00,SW,232,3.0,9.0,100,0.00,,,0.00,0.000000,,2013-04-05 14:42:00,
2013-04-05 04:52:00,59.0,59.0,-100.00,SW,232,3.0,9.0,100,0.00,,,0.00,0.000000,,2013-04-05 14:52:00,
2013-04-05 05:23:00,58.0,58.0,-100.00,SSW,194,3.0,7.0,100,0.00,,,0.00,0.000000,,2013-04-05 15:23:00,
2013-04-05 05:33:00,58.0,58.0,-100.00,SSW,194,3.0,7.0,100,0.00,,,0.00,0.000000,,2013-04-05 15:33:00,
2013-04-05 05:42:00,58.0,58.0,-100.00,SSW,194,3.0,7.0,100,0.00,,,0.00,0.000000,,2013-04-05 15:42:00,
2013-04-05 05:52:00,58.0,58.0,-100.00,SSW,194,3.0,7.0,100,0.00,,,0.00,0.000000,,2013-04-05 15:52:00,
2013-04-05 06:23:00,59.0,59.0,-100.00,SW,230,5.0,6.0,100,0.00,,,0.00,0.000000,,2013-04-05 16:23:00,
2013-04-05 06:32:00,59.0,59.0,-100.00,SW,230,5.0,6.0,100,0.00,,,0.00,0.000000,,2013-04-05 16:32:00,
2013-04-05 06:42:00,59.0,59.0,-100.00,SW,230,5.0,6.0,100,0.00,,,0.00,0.000000,,2013-04-05 16:42:00,
2013-04-05 06:52:00,59.0,59.0,-100.00,SW,230,5.0,6.0,100,0.00,,,0.00,0.000000,,2013-04-05 16:52:00,
2013-04-05 07:23:00,59.0,59.0,-100.00,SSW,195,2.0,7.0,100,0.00,,,0.00,10.000000,,2013-04-05 17:23:00,
2013-04-05 07:32:00,59.0,59.0,-100.00,SSW,195,2.0,7.0,100,0.00,,,0.00,10.000000,,2013-04-05 17:32:00,
2013-04-05 07:45:00,59.0,59.0,-100.00,SSW,195,2.0,7.0,100,0.00,,,0.00,10.000000,,2013-04-05 17:45:00,
2013-04-05 07:52:00,59.0,59.0,-100.00,SSW,195,2.0,7.0,100,0.00,,,0.00,10.000000,,2013-04-05 17:52:00,
2013-04-05 08:22:00,70.0,70.0,-100.00,SW,228,2.0,7.0,99,0.00,,,0.00,75.000000,,2013-04-05 18:22:00,
2013-04-05 08:32:00,70.0,70.0,-100.00,SW,228,2.0,7.0,99,0.00,,,0.00,75.000000,,2013-04-05 18:32:00,
2013-04-05 08:42:00,70.0,70.0,-100.00,SW,228,2.0,7.0,99,0.00,,,0.00,75.000000,,2013-04-05 18:42:00,
2013-04-05 08:52:00,70.0,70.0,-100.00,SW,228,2.0,7.0,99,0.00,,,0.00,75.000000,,2013-04-05 18:52:00,
2013-04-05 09:22:00,74.0,67.0,-100.00,WNW,283,2.0,9.0,79,0.00,,,0.00,154.000000,,2013-04-05 19:22:00,
2013-04-05 09:32:00,74.0,67.0,-100.00,WNW,283,2.0,9.0,79,0.00,,,0.00,154.000000,,2013-04-05 19:32:00,
2013-04-05 09:42:00,74.0,67.0,-100.00,WNW,283,2.0,9.0,79,0.00,,,0.00,154.000000,,2013-04-05 19:42:00,
2013-04-05 09:52:00,74.0,67.0,-100.00,WNW,283,2.0,9.0,79,0.00,,,0.00,154.000000,,2013-04-05 19:52:00,
2013-04-05 10:22:00,76.0,67.0,-100.00,ENE,74,7.0,13.0,75,0.00,,,0.00,219.000000,,2013-04-05 20:22:00,
2013-04-05 10:32:00,76.0,67.0,-100.00,ENE,74,7.0,13.0,75,0.00,,,0.00,219.000000,,2013-04-05 20:32:00,
2013-04-05 10:42:00,76.0,67.0,-100.00,ENE,74,7.0,13.0,75,0.00,,,0.00,219.000000,,2013-04-05 20:42:00,
2013-04-05 10:52:00,76.0,67.0,-100.00,ENE,74,7.0,13.0,75,0.00,,,0.00,219.000000,,2013-04-05 20:52:00,
2013-04-05 11:23:00,75.0,65.0,-100.00,East,79,9.0,17.0,70,0.00,,,0.00,285.000000,,2013-04-05 21:23:00,
2013-04-05 11:33:00,75.0,65.0,-100.00,East,79,9.0,17.0,70,0.00,,,0.00,285.000000,,2013-04-05 21:33:00,
2013-04-05 11:42:00,75.0,65.0,-100.00,East,79,9.0,17.0,70,0.00,,,0.00,285.000000,,2013-04-05 21:42:00,
2013-04-05 11:53:00,75.0,65.0,-100.00,East,79,9.0,17.0,70,0.00,,,0.00,285.000000,,2013-04-05 21:53:00,
2013-04-05 12:23:00,75.0,65.0,-100.00,ENE,77,9.0,17.0,70,0.00,,,0.00,415.000000,,2013-04-05 22:23:00,
2013-04-05 12:33:00,75.0,65.0,-100.00,ENE,77,9.0,17.0,70,0.00,,,0.00,415.000000,,2013-04-05 22:33:00,
2013-04-05 12:42:00,75.0,65.0,-100.00,ENE,77,9.0,17.0,70,0.00,,,0.00,415.000000,,2013-04-05 22:42:00,
2013-04-05 12:52:00,75.0,65.0,-100.00,ENE,77,9.0,17.0,70,0.00,,,0.00,415.000000,,2013-04-05 22:52:00,
2013-04-05 13:22:00,76.0,65.0,-100.00,East,88,7.0,15.0,68,0.00,,,0.00,462.000000,,2013-04-05 23:22:00,
2013-04-05 13:32:00,76.0,65.0,-100.00,East,88,7.0,15.0,68,0.00,,,0.00,462.000000,,2013-04-05 23:32:00,
2013-04-05 13:42:00,76.0,65.0,-100.00,East,88,7.0,15.0,68,0.00,,,0.00,462.000000,,2013-04-05 23:42:00,
2013-04-05 13:52:00,76.0,65.0,-100.00,East,88,7.0,15.0,68,0.00,,,0.00,462.000000,,2013-04-05 23:52:00,
2013-04-05 14:22:00,76.0,65.0,-100.00,East,79,8.0,17.0,68,0.00,,,0.00,552.000000,,2013-04-06 00:22:00,
2013-04-05 14:32:00,76.0,65.0,-100.00,East,79,8.0,17.0,68,0.00,,,0.00,552.000000,,2013-04-06 00:32:00,
2013-04-05 14:42:00,76.0,65.0,-100.00,East,79,8.0,17.0,68,0.00,,,0.00,552.000000,,2013-04-06 00:42:00,
2013-04-05 14:52:00,76.0,65.0,-100.00,East,79,8.0,17.0,68,0.00,,,0.00,552.000000,,2013-04-06 00:52:00,
2013-04-05 15:22:00,78.0,66.0,-100.00,East,101,8.0,18.0,67,0.00,,,0.00,524.000000,,2013-04-06 01:22:00,
2013-04-05 15:32:00,78.0,66.0,-100.00,East,101,8.0,18.0,67,0.00,,,0.00,524.000000,,2013-04-06 01:32:00,
2013-04-05 15:42:00,78.0,66.0,-100.00,East,101,8.0,18.0,67,0.00,,,0.00,524.000000,,2013-04-06 01:42:00,
2013-04-05 15:52:00,78.0,66.0,-100.00,East,101,8.0,18.0,67,0.00,,,0.00,524.000000,,2013-04-06 01:52:00,
2013-04-05 16:22:00,78.0,67.0,-100.00,ENE,77,9.0,18.0,69,0.00,,,0.00,555.000000,,2013-04-06 02:22:00,
2013-04-05 16:32:00,78.0,67.0,-100.00,ENE,77,9.0,18.0,69,0.00,,,0.00,555.000000,,2013-04-06 02:32:00,
2013-04-05 16:42:00,78.0,67.0,-100.00,ENE,77,9.0,18.0,69,0.00,,,0.00,555.000000,,2013-04-06 02:42:00,
2013-04-05 16:52:00,78.0,67.0,-100.00,ENE,77,9.0,18.0,69,0.00,,,0.00,555.000000,,2013-04-06 02:52:00,
2013-04-05 17:22:00,74.0,64.0,-100.00,East,81,10.0,19.0,71,0.00,,,0.00,509.000000,,2013-04-06 03:22:00,
2013-04-05 17:33:00,74.0,64.0,-100.00,East,81,10.0,19.0,71,0.00,,,0.00,509.000000,,2013-04-06 03:33:00,
2013-04-05 17:42:00,74.0,64.0,-100.00,East,81,10.0,19.0,71,0.00,,,0.00,509.000000,,2013-04-06 03:42:00,
2013-04-05 17:53:00,74.0,64.0,-100.00,East,81,10.0,19.0,71,0.00,,,0.00,509.000000,,2013-04-06 03:53:00,
2013-04-05 18:23:00,72.0,65.0,-100.00,East,90,5.0,16.0,79,0.00,,,0.00,238.000000,,2013-04-06 04:23:00,
2013-04-05 18:32:00,72.0,65.0,-100.00,East,90,5.0,16.0,79,0.00,,,0.00,238.000000,,2013-04-06 04:32:00,
2013-04-05 18:42:00,72.0,65.0,-100.00,East,90,5.0,16.0,79,0.00,,,0.00,238.000000,,2013-04-06 04:42:00,
2013-04-05 18:52:00,72.0,65.0,-100.00,East,90,5.0,16.0,79,0.00,,,0.00,238.000000,,2013-04-06 04:52:00,
2013-04-05 19:22:00,69.0,65.0,-100.00,ESE,118,5.0,13.0,88,0.00,,,-99.99,67.000000,,2013-04-06 05:22:00,
2013-04-05 19:32:00,69.0,65.0,-100.00,ESE,118,5.0,13.0,88,0.00,,,-99.99,67.000000,,2013-04-06 05:32:00,
2013-04-05 19:42:00,69.0,65.0,-100.00,ESE,118,5.0,13.0,88,0.00,,,-99.99,67.000000,,2013-04-06 05:42:00,
2013-04-05 19:51:00,69.0,65.0,-100.00,ESE,118,5.0,13.0,88,0.00,,,-99.99,67.000000,,2013-04-06 05:51:00,
2013-04-05 20:22:00,69.0,67.0,-100.00,South,188,3.0,9.0,93,0.00,,,0.00,0.000000,,2013-04-06 06:22:00,
2013-04-05 20:32:00,69.0,67.0,-100.00,South,188,3.0,9.0,93,0.00,,,0.00,0.000000,,2013-04-06 06:32:00,
2013-04-05 20:42:00,69.0,67.0,-100.00,South,188,3.0,9.0,93,0.00,,,0.00,0.000000,,2013-04-06 06:42:00,
2013-04-05 20:52:00,69.0,67.0,-100.00,South,188,3.0,9.0,93,0.00,,,0.00,0.000000,,2013-04-06 06:52:00,
2013-04-05 21:22:00,65.0,65.0,-100.00,SW,234,4.0,6.0,100,0.00,,,0.00,0.000000,,2013-04-06 07:22:00,
2013-04-05 21:32:00,65.0,65.0,-100.00,SW,234,4.0,6.0,100,0.00,,,0.00,0.000000,,2013-04-06 07:32:00,
2013-04-05 21:42:00,65.0,65.0,-100.00,SW,234,4.0,6.0,100,0.00,,,0.00,0.000000,,2013-04-06 07:42:00,
2013-04-05 21:52:00,65.0,65.0,-100.00,SW,234,4.0,6.0,100,0.00,,,0.00,0.000000,,2013-04-06 07:52:00,
2013-04-05 22:22:00,64.0,64.0,-100.00,SSW,202,2.0,8.0,100,0.00,,,0.00,0.000000,,2013-04-06 08:22:00,
2013-04-05 22:32:00,64.0,64.0,-100.00,SSW,202,2.0,8.0,100,0.00,,,0.00,0.000000,,2013-04-06 08:32:00,
2013-04-05 22:42:00,64.0,64.0,-100.00,SSW,202,2.0,8.0,100,0.00,,,0.00,0.000000,,2013-04-06 08:42:00,
2013-04-05 22:52:00,64.0,64.0,-100.00,SSW,202,2.0,8.0,100,0.00,,,0.00,0.000000,,2013-04-06 08:52:00,
2013-04-05 23:22:00,61.0,61.0,-100.00,SW,219,3.0,7.0,100,0.00,,,0.00,0.000000,,2013-04-06 09:22:00,
2013-04-05 23:32:00,61.0,61.0,-100.00,SW,219,3.0,7.0,100,0.00,,,0.00,0.000000,,2013-04-06 09:32:00,
2013-04-05 23:43:00,61.0,61.0,-100.00,SW,219,3.0,7.0,100,0.00,,,0.00,0.000000,,2013-04-06 09:43:00,
2013-04-05 23:52:00,61.0,61.0,-100.00,SW,219,3.0,7.0,100,0.00,,,0.00,0.000000,,2013-04-06 09:52:00,